Weather History for Parsons, KS

Change the Weather History Date:

Friday, October 25, 2013

  Actual Average Record
Temperature  
Mean Temperature 44 °F -  
Max Temperature 59 °F 66 °F 86 °F (2011)
Min Temperature 30 °F 43 °F 28 °F (2005)
Degree Days  
Heating Degree Days 22    
Moisture  
Dew Point 30 °F    
Average Humidity 61    
Maximum Humidity 89    
Minimum Humidity 31    
Precipitation  
Precipitation 0.00 in - - ()
Sea Level Pressure  
Sea Level Pressure 30.40 in    
Wind  
Wind Speed 2 mph (South)    
Max Wind Speed 9 mph    
Max Gust Speed 16 mph    
Visibility 10 miles    
Events      
Averages and records for this station are not official NWS values.
T = Trace of Precipitation, MM = Missing Value Source: NWS Daily Summary

Daily Weather History Graph

Daily Weather History Graph

Search for Another Location

Airport:

Trip Planner

Search our weather history database for the weather conditions in past years. The results will help you decide how hot, cold, wet, or windy it might be!

Date:

Astronomy

Oct. 25, 2013 Rise Set
Actual Time 7:39 AM CDT 6:31 PM CDT
Civil Twilight 7:13 AM CDT 6:58 PM CDT
Nautical Twilight 6:42 AM CDT 7:28 PM CDT
Astronomical Twilight 6:12 AM CDT 7:59 PM CDT
Moon 11:54 PM CDT 1:18 PM CDT
Length of Visible Light 11h 45m
Length of Day
10h 51m
Waning Gibbous, 62% of the Moon is Illuminated
Oct 25
Waning Gibbous
Oct 26
Last Quarter
Nov 3
New
Nov 9
First Quarter
Nov 17
Full

Hourly Weather History & Observations

Time (CDT) Temp. Windchill Dew Point Humidity Pressure Visibility Wind Dir Wind Speed Gust Speed Precip Events Conditions
12:52 AM 35.1 °F - 30.0 °F 82% 30.46 in 10.0 mi Calm Calm - N/A   Clear
1:52 AM 34.0 °F - 30.0 °F 85% 30.47 in 10.0 mi Calm Calm - N/A   Clear
2:52 AM 30.9 °F - 28.0 °F 89% 30.48 in 10.0 mi Calm Calm - N/A   Clear
3:52 AM 30.9 °F - 28.0 °F 89% 30.49 in 10.0 mi Calm Calm - N/A   Clear
4:52 AM 30.9 °F - 28.0 °F 89% 30.49 in 10.0 mi Calm Calm - N/A   Clear
5:52 AM 30.9 °F - 28.0 °F 89% 30.50 in 10.0 mi Calm Calm - N/A   Clear
6:52 AM 32.0 °F - 28.0 °F 85% 30.50 in 10.0 mi Calm Calm - N/A   Clear
7:52 AM 34.0 °F - 28.0 °F 79% 30.51 in 10.0 mi Calm Calm - N/A   Clear
8:52 AM 41.0 °F - 32.0 °F 70% 30.51 in 10.0 mi Calm Calm - N/A   Scattered Clouds
9:52 AM 46.0 °F 43.1 °F 28.9 °F 51% 30.51 in 10.0 mi Variable 5.8 mph - N/A   Clear
10:52 AM 50.0 °F - 26.1 °F 39% 30.50 in 10.0 mi SSE 9.2 mph - N/A   Clear
11:52 AM 52.0 °F - 25.0 °F 35% 30.48 in 10.0 mi Variable 6.9 mph 16.1 mph N/A   Clear
12:52 PM 54.0 °F - 25.0 °F 33% 30.45 in 10.0 mi Variable 6.9 mph - N/A   Clear
1:52 PM 55.9 °F - 26.1 °F 32% 30.40 in 10.0 mi Variable 5.8 mph - N/A   Clear
2:52 PM 57.0 °F - 27.0 °F 32% 30.37 in 10.0 mi South 8.1 mph - N/A   Clear
3:52 PM 57.9 °F - 27.0 °F 31% 30.33 in 10.0 mi South 6.9 mph - N/A   Clear
4:52 PM 57.0 °F - 28.9 °F 34% 30.31 in 10.0 mi South 4.6 mph - N/A   Partly Cloudy
5:52 PM 55.9 °F - 30.0 °F 37% 30.29 in 10.0 mi South 5.8 mph - N/A   Clear
6:52 PM 51.1 °F - 33.1 °F 50% 30.27 in 10.0 mi Calm Calm - N/A   Clear
7:52 PM 48.9 °F - 35.1 °F 59% 30.26 in 10.0 mi SE 3.5 mph - N/A   Clear
8:52 PM 46.0 °F - 35.1 °F 66% 30.26 in 10.0 mi Calm Calm - N/A   Clear
9:52 PM 45.0 °F 42.6 °F 35.1 °F 68% 30.24 in 10.0 mi South 4.6 mph - N/A   Clear
10:52 PM 44.1 °F 40.8 °F 36.0 °F 73% 30.23 in 10.0 mi South 5.8 mph - N/A   Clear
11:52 PM 44.1 °F 42.5 °F 35.1 °F 71% 30.22 in 10.0 mi SSW 3.5 mph - N/A   Clear